Location: Hains Lake
(37.8540°N, 99.8578°W)
Time: 16:09:22
(UTC+00:00)

Courier 1B Rocket - Pass Details

Date: 24 April 2021
Orbit: 920 x 1202 km, 28.3° (Epoch: 10 May)

Event Time Altitude Azimuth Distance (km) Brightness Sun altitude
Rises 02:40:51 0° 253° (WSW) 3,639 8.7 -14.9°
Reaches altitude 10° 02:43:36 10° 245° (WSW) 2,727 7.8 -15.4°
Maximum altitude 02:49:37 37° 180° (S) 1,532 5.8 -16.4°
Enters shadow 02:52:51 25° 133° (SE) 1,996 6.0 -16.9°
